CST,Max TemperatureF,Mean TemperatureF,Min TemperatureF,Max Dew PointF,MeanDew PointF,Min DewpointF,Max Humidity, Mean Humidity, Min Humidity, Max Sea Level PressureIn, Mean Sea Level PressureIn, Min Sea Level PressureIn, Max VisibilityMiles, Mean VisibilityMiles, Min VisibilityMiles, Max Wind SpeedMPH, Mean Wind SpeedMPH, Max Gust SpeedMPH,PrecipitationIn, CloudCover, Events, WindDirDegrees
2013-1-1,42,36,30,41,37,26,100,93,85,30.22,30.09,30.02,10,6,1,17,8,21,0.16,8,Rain,1
2013-1-2,35,30,25,25,22,21,88,75,61,30.29,30.25,30.20,10,8,5,13,5,15,0.00,3,,346
2013-1-3,43,32,20,27,22,19,92,69,46,30.45,30.37,30.27,10,10,8,10,3,13,0.00,0,,318
2013-1-4,47,34,20,28,23,18,96,69,42,30.51,30.45,30.40,10,10,6,10,1,13,0.00,0,,261
2013-1-5,46,34,22,34,27,21,96,71,45,30.43,30.34,30.27,10,10,10,12,4,16,0.00,5,,211
2013-1-6,51,39,26,37,32,24,96,71,46,30.41,30.28,30.22,10,9,2,20,8,25,0.00,3,,262
2013-1-7,50,36,22,27,23,20,96,68,39,30.48,30.36,30.24,10,9,5,9,2,12,0.00,0,,86
2013-1-8,59,42,24,41,32,23,92,66,40,30.30,30.24,30.19,10,10,10,12,4,16,0.00,1,,152
2013-1-9,55,52,48,54,50,43,100,82,64,30.39,30.34,30.23,10,6,0,13,5,16,0.42,8,Fog-Rain,52
2013-1-10,69,61,53,63,59,51,100,87,73,30.35,30.10,29.92,10,6,1,20,9,31,1.28,8,Rain,147
2013-1-11,68,61,54,62,55,49,93,73,52,30.05,29.98,29.92,10,9,2,25,10,31,0.05,4,Rain,203
2013-1-12,73,68,63,65,64,62,93,83,73,29.98,29.89,29.76,10,10,6,18,10,28,0.02,7,Rain,179
2013-1-13,71,51,30,63,43,26,100,87,73,30.28,29.97,29.75,10,7,1,24,12,31,2.87,8,Rain-Thunderstorm,326
2013-1-14,30,28,26,25,24,21,85,80,75,30.40,30.33,30.28,10,10,3,21,11,25,0.05,6,Rain,20
2013-1-15,32,30,27,30,27,23,100,89,78,30.29,30.16,30.08,10,6,2,20,11,23,0.17,8,Rain,19
2013-1-16,33,32,30,30,29,27,100,93,85,30.17,30.13,30.06,9,6,4,13,5,15,T,7,,340
2013-1-17,48,39,30,36,30,25,92,76,60,30.48,30.27,30.12,10,10,8,22,10,29,0.00,4,,347
2013-1-18,51,37,22,28,25,21,96,63,30,30.59,30.48,30.36,10,10,7,9,4,10,0.00,0,,180
2013-1-19,59,48,37,33,29,26,70,52,33,30.35,30.26,30.17,10,10,10,18,10,25,0.00,0,,205
2013-1-20,56,44,31,35,30,22,89,61,32,30.29,30.21,30.18,10,10,10,13,6,18,0.00,0,,343
2013-1-21,39,30,21,22,19,16,81,59,37,30.37,30.31,30.21,10,10,10,18,7,24,0.00,0,,350
2013-1-22,35,28,20,20,13,5,92,62,32,30.46,30.39,30.35,10,10,10,10,4,12,0.00,4,,10
2013-1-23,57,39,21,36,27,16,82,62,41,30.38,30.29,30.19,10,10,10,15,4,18,0.00,0,,224
2013-1-24,39,35,30,32,20,13,89,62,35,30.48,30.35,30.24,10,10,10,20,10,24,T,5,Rain,63
2013-1-25,46,37,27,37,30,18,100,74,47,30.27,30.19,30.04,10,4,0,17,5,22,0.72,5,Fog-Rain,338
2013-1-26,52,39,25,35,29,23,100,71,42,30.36,30.30,30.26,10,7,1,8,2,9,0.00,2,,86
2013-1-27,59,49,39,45,39,31,71,64,57,30.30,30.23,30.15,10,10,10,17,6,28,T,5,,141
2013-1-28,70,63,55,59,53,42,87,74,61,30.19,30.13,30.07,10,10,5,17,11,23,0.09,6,Rain,183
2013-1-29,72,66,59,62,59,55,90,79,68,30.06,29.84,29.47,10,10,10,29,13,43,T,5,Rain,180
2013-1-30,72,53,34,63,45,22,100,77,54,30.02,29.64,29.51,10,7,1,37,15,49,2.24,8,Rain-Thunderstorm,270
2013-1-31,51,39,27,34,26,22,85,62,38,30.30,30.15,30.02,10,8,1,28,12,35,0.10,4,Rain-Snow,279